This demonstration page uses our WeatherBlox Daily Observations layout. Learn more.

Left ArrowRight Arrow

39.08367, -84.50855

Hourly Observations for March 20, 2020

Temp ( °F °C ) Dew Point ( °F °C ) Humidity (%) Winds ( mph kmh ) Pressure ( in mb ) Visibility ( mi km ) Precip ( " mm )
12:53 am 00:53 Cloudy 66 18.9 63 17.2 90 90 SSW 13 20 29.96 1015 10 16 0.01 0.25
1:53 am 01:53 Cloudy 66 18.9 63 17.2 90 90 SSW 9 15 29.95 1014 10 16 N/A
2:53 am 02:53 Cloudy with Light Rain 67 19.4 63 17.2 87 87 SSW 12 19 29.94 1014 9 14 0.01 0.25
3:53 am 03:53 Mostly Cloudy 67 19.4 63 17.2 87 87 SSW 15 24 29.90 1013 10 16 0.00 0.00
4:53 am 04:53 Mostly Cloudy 68 20 63 17.2 84 84 SSW 17 28 29.88 1012 10 16 0.01 0.25
5:53 am 05:53 Cloudy with Light Rain 67 19.4 63 17.2 87 87 SSW 15 24 29.88 1012 8 13 0.18 4.57
6:33 am 06:33 Cloudy 67 19.4 63 17.2 87 87 SSW 13 20 29.87 1011 10 16 0.00 0.00
6:53 am 06:53 Cloudy with Light Rain 67 19.4 64 17.8 91 91 SSW 10 17 29.88 1012 5 8 0.02 0.51
7:53 am 07:53 Cloudy 68 20 63 17.2 84 84 SSW 25 41 29.86 1011 10 16 0.00 0.00
8:17 am 08:17 Cloudy with Light Rain 67 19.4 63 17.2 87 87 W 16 26 29.90 1013 3 5 0.09 2.29
8:53 am 08:53 Mostly Cloudy 68 20 63 17.2 84 84 SW 14 22 29.92 1013 10 16 0.09 2.29
9:00 am 09:00 Mostly Cloudy 68 20 63 17.2 84 84 SW 15 24 29.92 1013 10 16 N/A
9:53 am 09:53 Cloudy 69 20.6 63 17.2 81 81 SW 10 17 29.96 1014 10 16 N/A
10:53 am 10:53 Mostly Cloudy 70 21.1 60 15.6 71 71 WSW 15 24 29.98 1015 10 16 N/A
11:53 am 11:53 Mostly Cloudy 71 21.7 59 15 66 66 WSW 16 26 29.99 1016 10 16 N/A
12:53 pm 12:53 Mostly Sunny 73 22.8 58 14.4 59 59 W 22 35 29.99 1016 10 16 N/A
1:53 pm 13:53 Mostly Sunny 73 22.8 55 12.8 53 53 W 18 30 29.99 1016 10 16 N/A
2:45 pm 14:45 Mostly Sunny 67 19.4 56 13.3 68 68 WSW 21 33 30.01 1016 10 16 N/A
2:53 pm 14:53 Mostly Sunny 65 18.3 56 13.3 73 73 NNW 13 20 30.02 1017 10 16 N/A
3:53 pm 15:53 Partly Cloudy 64 17.8 54 12.2 70 70 NW 9 15 30.04 1017 10 16 N/A
4:53 pm 16:53 Mostly Cloudy 60 15.6 50 10 70 70 NNW 15 24 30.08 1019 10 16 N/A
5:53 pm 17:53 Cloudy 54 12.2 45 7.2 72 72 NNW 12 19 30.14 1021 10 16 N/A
6:53 pm 18:53 Cloudy 50 10 41 5 71 71 N 22 35 30.19 1022 10 16 N/A
7:00 pm 19:00 Cloudy 50 10 41 5 71 71 NNW 15 24 30.21 1023 10 16 N/A
7:53 pm 19:53 Cloudy 47 8.3 38 3.3 71 71 NNW 17 28 30.24 1024 10 16 N/A
8:53 pm 20:53 Cloudy 45 7.2 36 2.2 71 71 NNW 14 22 30.26 1025 10 16 N/A
9:53 pm 21:53 Cloudy 45 7.2 35 1.7 68 68 N 18 30 30.31 1026 10 16 N/A
10:53 pm 22:53 Cloudy 43 6.1 33 0.6 68 68 N 13 20 30.34 1027 10 16 N/A
11:53 pm 23:53 Cloudy 42 5.6 33 0.6 71 71 NNW 15 24 30.35 1028 10 16 N/A

Powered by AerisWeather